Вернуться в каталог

STARLINK-5199

АктивенСвязьVLEO
NORAD 54201·PAYLOAD·🇺🇸 United States

Запущен Oct 28, 2022 с Vandenberg Space Force Base

Loading…

Ближайшие Пролёты (ближайшие 24 часа)

TLE

СвежийSource: CelesTrak SupGP

Эпоха: Sep 14, 2026, 21:31 UTC

1 54201C 22141AW  26257.89701389  .00010070  00000+0  29747-3 0  2575
2 54201  53.1582 213.7797 0001379  97.0631  92.4652 15.34389199    11

Отслеживайте STARLINK-5199 в реальном времени с AllMySat

Download on the App Store